DECAYED

STARLINK-3539, 51853 (Decayed)

Orbit data source: Space-Track

STARLINK-3539, 51853 was a payload satellite owned by SpaceX/Seattle (US) in LEO that was launched on Thu, 03 Mar 2022 UTC via an FALCON 9 launch vehicle from the Air Force Eastern Test Range (AFETR). Payload-class satellites include a variety of spacecraft equipped with specific instruments for various scientific and technological missions. These include communications satellites like Starlink; space stations such as the ISS; scientific satellites like the Hubble; Earth observation satellites from companies like Planet Labs, Umbra, and HawkEye 360; GPS; miniature CubeSats for education and research; and military/defense satellites.

Not visible in the next 10 days
Identifier
51853, 2022-022B
Orbit
Decayed
Country
Flag of USUS
Related business
Manufacturer
SpaceX/Seattle
Mission
Decayed Commercial Communications
Bus & Motor
STARLINK, Unknown motor
Mass
297 kg wet, ~275 kg dry
Launch date (UTC)
2022-03-03 (4 years ago)
Launch vehicle
FALCON 9
Launch site
Air Force Eastern Test Range (AFETR)
Object type
Payload
Rocket body
Debris
Shape & HBR
Box + 1 Pan, 10.1 m
Radar Cross Section
13.562 m², Large (>1 m²)

Expand to show TLE details & history
Last TLE update: 1 year ago

TLE from 1 year ago
0 STARLINK-3539
1 51853U 22022B   25176.90041284  .07504953  12279-4  50508-3 0  9998
2 51853  53.2062  65.7494 0013052 247.0613 214.5756 16.40291307184546
Epoch: 2025-06-25T21:36Z
TLE epoch observation values (Epoch: 2025-06-25T21:36:35.669Z)
Latitude
51.83834°
Longitude
-63.81014°
Altitude
178.257 km
Speed
7.802 km/s
True Right ascension
11h 38m 27s
True Declination
51° 39' 23"
Sunlit
Object was in daylight at epoch
Visualization orbit readout
Latitude
Unknown
Longitude
Unknown
Altitude
Unknown
Speed
Unknown
Apparent Right ascension
Unknown
Apparent Declination
Unknown
Sunlit
N/A
Visualization observer readout
Local Sidereal Time
21:32:23
Azimuth
Unknown
Elevation
Unknown
Doppler factor
Unknown
Orbital elements
Apogee altitude
173.829 km
Perigee altitude
156.748 km
Semi-major axis
6,543.425 km
Eccentricity
0.00131
Inclination
53.2062°
RAAN
65.7494°
Arg. of periapsis
247.0613°
True anomaly
214.49084°
Mean anomaly
214.5756°
Eccentric anomaly
214.53321°
Mean motion
4.10049 °/min
Orbital period
87.79 mins
BSTAR
0.00050508
Loading maneuver chart data...
Computing Atmospheric mass density...
Loading historical data...
Loading historical data...
Loading historical data...
Loading historical data...
Loading historical data...
Loading historical data...
Loading historical data...

Documentation

Showing up to 5 results
|